TimeCST,TemperatureF,Dew PointF,Humidity,Sea Level PressureIn,VisibilityMPH,Wind Direction,Wind SpeedMPH,Gust SpeedMPH,PrecipitationIn,Events,Conditions,WindDirDegrees,DateUTC
12:04 AM,26.6,24.8,93,30.05,8.0,Calm,Calm,-,N/A,,Mostly Cloudy,0,2013-01-17 06:04:00
12:22 AM,26.6,24.8,93,30.06,8.0,West,5.8,-,N/A,,Scattered Clouds,260,2013-01-17 06:22:00
12:52 AM,28.0,26.1,92,30.10,8.0,West,6.9,-,N/A,,Mostly Cloudy,270,2013-01-17 06:52:00
1:19 AM,30.2,28.4,93,30.09,8.0,WNW,5.8,-,N/A,,Overcast,290,2013-01-17 07:19:00
1:52 AM,30.0,28.0,92,30.13,9.0,NW,6.9,-,N/A,,Mostly Cloudy,310,2013-01-17 07:52:00
2:07 AM,30.2,26.6,86,30.12,9.0,WNW,5.8,-,N/A,,Scattered Clouds,300,2013-01-17 08:07:00
2:25 AM,30.2,28.4,93,30.13,9.0,NW,6.9,-,N/A,,Mostly Cloudy,320,2013-01-17 08:25:00
2:52 AM,28.9,25.0,85,30.16,9.0,WNW,6.9,-,N/A,,Mostly Cloudy,300,2013-01-17 08:52:00
3:01 AM,28.4,26.6,93,30.14,9.0,NW,8.1,-,N/A,,Partly Cloudy,310,2013-01-17 09:01:00
3:52 AM,28.0,19.9,72,30.19,10.0,NNW,8.1,-,N/A,,Clear,340,2013-01-17 09:52:00
4:52 AM,26.1,17.1,69,30.22,10.0,NNW,13.8,-,N/A,,Clear,340,2013-01-17 10:52:00
5:52 AM,23.0,14.0,68,30.25,10.0,North,11.5,-,N/A,,Clear,360,2013-01-17 11:52:00
6:52 AM,21.0,12.0,68,30.27,10.0,NNW,6.9,-,N/A,,Clear,340,2013-01-17 12:52:00
7:52 AM,21.0,10.0,63,30.30,10.0,NNW,8.1,-,N/A,,Clear,340,2013-01-17 13:52:00
8:52 AM,24.1,7.0,48,30.33,10.0,North,15.0,-,N/A,,Clear,350,2013-01-17 14:52:00
9:52 AM,26.1,9.0,49,30.34,10.0,NNW,13.8,-,N/A,,Clear,330,2013-01-17 15:52:00
10:52 AM,27.0,8.1,45,30.35,10.0,NW,12.7,-,N/A,,Clear,310,2013-01-17 16:52:00
11:52 AM,28.0,9.0,45,30.35,10.0,NW,13.8,-,N/A,,Clear,320,2013-01-17 17:52:00
12:52 PM,28.0,9.0,45,30.34,10.0,NW,15.0,-,N/A,,Clear,320,2013-01-17 18:52:00
1:52 PM,28.0,9.0,45,30.34,10.0,NNW,17.3,-,N/A,,Clear,330,2013-01-17 19:52:00
2:52 PM,27.0,8.1,45,30.35,10.0,NW,10.4,-,N/A,,Clear,310,2013-01-17 20:52:00
3:52 PM,27.0,8.1,45,30.35,10.0,WNW,9.2,-,N/A,,Clear,300,2013-01-17 21:52:00
4:52 PM,24.1,9.0,53,30.37,10.0,WNW,6.9,-,N/A,,Clear,290,2013-01-17 22:52:00
5:52 PM,21.0,10.0,63,30.38,10.0,West,5.8,-,N/A,,Clear,260,2013-01-17 23:52:00
6:52 PM,19.9,10.9,68,30.41,10.0,WSW,3.5,-,N/A,,Clear,250,2013-01-18 00:52:00
7:52 PM,19.0,10.9,71,30.41,10.0,SW,4.6,-,N/A,,Clear,230,2013-01-18 01:52:00
8:52 PM,19.0,12.0,74,30.41,10.0,WSW,4.6,-,N/A,,Clear,240,2013-01-18 02:52:00
9:52 PM,19.0,12.0,74,30.41,10.0,WSW,4.6,-,N/A,,Clear,240,2013-01-18 03:52:00
10:52 PM,19.0,12.9,77,30.41,10.0,WSW,5.8,-,N/A,,Clear,250,2013-01-18 04:52:00
11:52 PM,19.0,12.9,77,30.43,10.0,West,6.9,-,N/A,,Clear,280,2013-01-18 05:52:00